SCP
0 0 0 0 0 0 0 0 0 0 0 0 0 0 0 0 0 0 0 0 0 0 0 0 0 0 0 0 0 0 0 0 0 0 0 0 0 0 0 0 0 0 0
0 0 0 0 0 0 0 0 0 0 0 0 0 0 0 0 0 0 0 0 0 0 0 0 0 0 0 0 0 0 0 0 0 0 0 0 0 0 0 0 0 0 0
0 0 0 0 0 0 0 0 0 0 0 0 0 0 0 0 0 0 0 0 0 0 0 0 0 0 0 0 0 0 0 0 0 0 0 0 0 0 0 0 0 0 0
0 0 0 0 0 0 0 0 0 0 0 0 0 0 0 0 0 0 0 0 0 0 0 0 0 0 0 0 0 0 0 0 0 0 0 0 0 0 0 0 0 0 0
0 0 0 0 0 0 0 0 0 0 0 0 0 0 0 0 0 0 0 0 0 0 0 0 0 0 0 0 0 0 0 0 0 0 0 0 0 0 0 0 0 0 0
0 0 0 0 0 0 0 0 0 0 0 0 0 0 0 0 0 0 0 0 0 0 0 0 0 0 0 0 0 0 0 0 0 0 0 0 0 0 0 0 0 0 0
0 0 0 0 0 0 0 0 0 0 0 0 0 0 0 0 0 0 0 0 0 0 0 0 0 0 0 0 0 0 0 0 0 0 0 0 0 0 0 0 0 0 0
0 0 0 0 0 0 0 0 0 0 0 0 0 0 0 0 0 0 0 0 0 0 0 0 0 0 0 0 0 0 0 0 0 0 0 0 0 0 0 0 0 0 0
0 0 0 0 0 0 0 0 0 0 0 0 0 0 0 0 0 0 0 0 0 0 0 0 0 0 0 0 0 0 0 0 0 0 0 0 0 0 0 0 0 0 0
0 0 0 0 0 0 0 0 0 0 0 0 0 0 0 0 0 0 0 0 0 0 0 0 0 0 0 0 0 0 0 0 0 0 0 0 0 0 0 0 0 0 0
0 0 0 0 0 0 0 0 0 0 0 0 0 0 0 0 0 0 0 0 0 0 0 0 0 0 0 0 0 0 0 0 0 0 0 0 0 0 0 0 0 0 0
0 0 0 0 0 0 0 0 0 0 0 0 0 0 0 0 0 0 0 0 0 0 0 0 0 0 0 0 0 0 0 0 0 0 0 0 0 0 0 0 0 0 0
0 0 0 0 0 0 0 0 0 0 0 0 0 0 0 0 0 0 0 0 0 0 0 0 0 0 0 0 0 0 0 0 0 0 0 0 0 0 0 0 0 0 0
0 0 0 0 0 0 0 0 0 0 0 0 0 0 0 0 0 0 0 0 0 0 0 0 0 0 0 0 0 0 0 0 0 0 0 0 0 0 0 0 0 0 0
0 0 0 0 0 0 0 0 0 0 0 0 0 0 0 0 0 0 0 0 0 0 0 0 0 0 0 0 0 0 0 0 0 0 0 0 0 0 0 0 0 0 0
0 0 0 0 0 0 0 0 0 0 0 0 0 0 0 0 0 0 0 0 0 0 0 0 0 0 0 0 0 0 0 0 0 0 0 0 0 0 0 0 0 0 0
0 0 0 0 0 0 0 0 0 0 0 0 0 0 0 0 0 0 0 0 0 0 0 0 0 0 0 0 0 0 0 0 0 0 0 0 0 0 0 0 0 0 0
0 0 0 0 0 0 0 0 0 0 0 0 0 0 0 0 0 0 0 0 0 0 0 0 0 0 0 0 0 0 0 0 0 0 0 0 0 0 0 0 0 0 0
0 0 0 0 0 0 0 0 0 0 0 0 0 0 0 0 0 0 0 0 0 0 0 0 0 0 0 0 0 0 0 0 0 0 0 0 0 0 0 0 0 0 0
0 0 0 0 0 0 0 0 0 0 0 0 0 0 0 0 0 0 0 0 0 0 0 0 0 0 0 0 0 0 0 0 0 0 0 0 0 0 0 0 0 0 0
0 0 0 0 0 0 0 0 0 0 0 0 0 0 0 0 0 0 0 0 0 0 0 0 0 0 0 0 0 0 0 0 0 0 0 0 0 0 0 0 0 0 0
0 0 0 0 0 0 0 0 0 0 0 0 0 0 0 0 0 0 0 0 0 0 0 0 0 0 0 0 0 0 0 0 0 0 0 0 0 0 0 0 0 0 0
0 0 0 0 0 0 0 0 0 0 0 0 0 0 0 0 0 0 0 0 0 0 0 0 0 0 0 0 0 0 0 0 0 0 0 0 0 0 0 0 0 0 0
0 0 0 0 0 0 0 0 0 0 0 0 0 0 0 0 0 0 0 0 0 0 0 0 0 0 0 0 0 0 0 0 0 0 0 0 0 0 0 0 0 0 0
0 0 0 0 0 0 0 0 0 0 0 0 0 0 0 0 0 0 0 0 0 0 0 0 0 0 0 0 0 0 0 0 0 0 0 0 0 0 0 0 0 0 0
0 0 0 0 0 0 0 0 0 0 0 0 0 0 0 0 0 0 0 0 0 0 0 0 0 0 0 0 0 0 0 0 0 0 0 0 0 0 0 0 0 0 0
Wind_Speed
4 4 3 3 3 4 4 4 4 3 3 4 4 4 4 4 3 3 3 3 3 3 3 3 4 3 3 3 3 3 3 4 5 4 3 2 3 5 4 5 6 6 5
4 4 4 3 3 3 4 3 3 3 4 4 4 3 3 3 3 3 3 3 3 4 3 3 3 3 3 4 3 3 3 4 5 5 4 3 4 4 4 6 5 5 5
4 4 3 3 3 4 3 3 3 3 3 3 3 3 3 3 3 3 3 3 3 3 3 3 4 3 4 3 4 4 4 3 4 5 5 3 4 3 5 5 5 5 6
4 3 3 3 3 3 3 3 3 3 3 3 3 3 3 3 3 3 3 3 3 4 4 4 4 4 4 4 4 4 4 4 4 5 4 3 3 3 4 5 4 4 5
3 3 3 3 3 3 2 2 2 3 3 3 4 4 3 3 2 2 3 3 4 4 4 4 4 3 3 4 4 3 4 5 4 4 4 4 3 3 4 5 5 5 4
4 3 2 3 3 3 3 2 2 2 2 3 4 3 3 2 2 1 3 4 4 5 4 4 4 4 4 5 5 5 5 6 5 5 5 4 4 5 4 6 6 6 5
3 3 3 3 3 3 3 2 2 2 2 2 3 3 2 2 3 3 4 4 5 4 4 4 4 2 4 4 5 7 7 7 7 7 7 6 6 5 6 7 6 7 7
4 4 3 3 3 3 3 2 2 2 2 2 2 3 2 2 4 3 4 5 5 4 4 4 4 4 3 4 5 5 6 5 6 7 6 7 7 6 6 7 8 8 8
4 4 4 4 4 3 3 3 2 2 2 2 2 3 3 3 4 4 5 5 4 4 5 4 4 4 2 3 6 6 6 5 5 6 7 7 7 7 7 6 6 6 6
4 4 3 4 4 4 3 3 2 3 3 3 2 2 3 3 4 5 6 4 4 4 4 4 4 4 3 4 6 6 7 6 5 5 6 8 9 8 9 8 7 7 6
4 3 3 3 3 4 3 3 3 3 3 3 3 3 3 3 5 5 5 4 4 4 3 3 2 5 5 6 7 7 6 7 7 6 6 6 6 5 6 6 6 7 7
4 4 3 3 3 3 4 4 4 4 4 4 4 4 3 4 4 5 6 6 6 5 4 3 1 4 5 7 7 5 6 7 7 6 6 6 5 5 5 5 6 7 7
5 4 4 4 3 4 4 5 5 5 4 4 4 4 3 3 4 6 8 7 7 6 3 2 2 4 6 7 9 8 7 6 6 6 6 6 5 5 5 5 6 6 8
5 5 5 4 4 4 4 4 5 4 4 4 4 4 3 3 2 2 3 5 6 6 5 4 7 9 8 7 5 6 6 5 5 6 6 6 5 5 5 4 4 4 5
5 5 5 5 4 4 4 4 5 4 3 4 4 4 4 4 1 1 3 3 3 2 4 5 4 4 4 4 4 4 4 4 5 6 6 6 5 5 4 4 4 5 5
5 5 5 4 4 4 5 4 3 3 3 4 4 5 3 0 1 2 3 4 3 3 5 5 4 4 4 4 4 4 4 4 4 5 5 5 5 5 5 4 4 5 5
6 5 5 5 5 5 5 5 4 4 5 6 6 5 5 2 3 3 4 4 4 5 5 4 4 4 4 4 4 4 4 4 4 5 5 5 5 5 5 4 4 4 4
6 5 5 5 5 5 4 4 4 4 4 4 6 8 7 6 6 5 4 4 4 5 5 5 4 4 4 4 4 4 4 4 4 4 4 4 5 5 5 4 4 4 5
5 4 4 4 4 4 4 4 4 4 4 3 3 5 7 7 7 6 7 5 4 4 4 4 4 4 4 4 4 4 4 4 4 4 4 4 5 5 4 4 4 3 5
4 4 4 4 4 4 4 4 4 4 4 4 3 2 4 5 4 5 5 5 5 4 4 4 4 4 4 4 4 4 4 4 4 4 4 4 4 4 5 5 5 4 4
4 4 5 5 4 3 3 4 4 4 4 3 3 2 2 4 4 4 4 4 4 4 4 4 4 4 4 3 4 4 5 4 4 4 4 4 4 4 4 4 4 4 4
3 3 4 4 3 3 3 3 4 4 4 4 3 3 5 5 3 3 3 3 3 3 3 3 4 3 3 3 3 4 4 4 4 4 4 4 3 4 4 4 4 4 4
3 3 3 3 3 3 3 3 3 4 3 3 3 3 3 3 3 3 3 3 2 2 2 3 4 3 2 3 3 4 4 4 4 4 4 4 3 3 3 4 4 4 3
2 3 3 3 4 3 3 3 3 3 3 3 3 2 2 3 3 3 3 2 2 2 2 3 3 3 3 3 3 3 2 3 4 4 5 4 4 3 3 4 4 3 3
2 2 2 3 3 3 2 2 3 3 2 2 2 2 2 2 2 3 3 2 3 2 3 3 2 2 3 4 4 3 2 3 4 5 4 4 4 3 4 4 3 3 3
2 2 2 2 2 2 3 3 3 3 3 2 2 2 2 2 2 3 3 2 3 2 3 3 3 3 3 3 3 2 1 2 4 5 6 4 4 3 4 3 3 3 2
Wind_Direction
190 188 192 203 204 217 223 228 233 235 228 226 225 232 232 224 218 221 224 213 218 229 238 230 239 257 256 261 257 256 258 264 269 280 294 306 288 285 285 275 266 257 222
189 189 195 200 205 219 227 231 230 230 228 225 220 226 233 223 213 217 226 222 218 223 230 236 243 236 239 255 262 261 264 272 272 281 285 285 283 282 284 276 273 267 266
186 189 189 202 210 218 221 223 231 228 228 225 221 222 226 218 212 216 228 232 230 231 232 236 243 246 248 252 257 259 260 256 262 267 271 279 277 280 280 270 265 269 269
189 192 187 208 216 220 224 229 227 223 225 225 225 225 223 219 215 214 219 229 230 233 235 236 240 243 250 256 252 256 265 267 255 257 265 267 272 284 282 281 275 265 272
196 196 197 209 214 219 225 225 218 216 222 226 229 224 220 222 217 223 229 230 230 232 236 240 237 242 269 270 275 272 267 268 266 266 267 269 282 296 292 291 288 284 269
191 194 196 206 209 212 215 211 207 208 228 228 226 221 221 220 116 211 254 243 239 237 240 247 238 221 214 221 248 270 276 269 279 281 278 286 290 289 293 289 292 290 285
189 195 198 204 206 208 209 203 202 206 213 224 221 214 215 161 155 200 237 248 240 241 245 247 254 240 227 241 225 228 243 246 257 273 283 289 289 293 292 287 287 290 292
193 202 204 206 207 207 206 212 215 220 224 229 223 210 206 176 166 202 233 235 242 244 246 247 252 259 254 262 262 254 253 245 241 246 265 277 286 294 284 279 280 274 268
199 205 206 209 209 215 217 219 225 233 239 240 225 206 205 186 173 203 237 234 233 237 240 240 245 252 243 258 260 263 262 259 231 234 253 265 278 276 275 275 274 274 280
201 208 209 215 212 220 223 231 232 234 241 246 229 214 209 202 179 202 236 243 240 241 232 225 210 239 237 240 255 261 264 270 275 249 241 245 251 247 234 252 270 275 281
203 208 215 222 222 222 221 230 235 237 234 238 230 225 217 210 180 194 225 251 252 249 246 240 200 179 220 241 258 261 273 283 274 265 261 259 255 252 247 246 259 269 275
207 213 216 225 231 216 218 223 227 229 220 219 224 233 219 202 193 190 205 233 273 264 262 268 207 172 219 236 247 260 268 271 267 267 267 269 270 267 263 258 253 259 265
212 217 216 214 223 221 220 219 220 220 229 226 226 232 229 209 178 186 203 220 243 257 277 314 288 238 248 238 232 239 246 252 262 265 269 273 275 275 273 261 251 250 255
215 216 215 218 222 217 224 224 226 225 231 235 236 237 233 223 216 194 207 212 218 232 250 235 223 228 243 258 242 226 238 254 265 270 276 276 275 267 263 268 267 259 261
216 216 221 222 224 223 224 236 241 236 242 254 255 248 247 243 176 30 275 256 258 265 269 257 254 249 249 249 256 259 252 241 244 260 268 271 272 273 272 267 267 270 271
217 218 224 226 219 225 221 225 227 244 202 225 259 278 270 296 145 216 252 266 264 246 252 256 263 269 272 278 280 274 263 259 262 265 269 274 276 278 278 275 271 272 277
224 225 230 230 225 230 230 232 225 208 213 220 223 229 244 236 211 216 229 242 234 218 241 259 268 274 278 282 282 283 283 279 275 270 273 277 277 277 279 278 275 279 283
229 222 230 234 235 236 237 239 240 232 214 209 201 205 209 210 210 209 202 205 217 221 248 262 269 272 275 279 283 288 289 283 276 277 277 281 281 278 278 282 280 285 289
235 232 230 235 236 235 234 234 238 239 239 231 207 174 190 194 199 205 201 233 254 252 257 265 270 275 278 281 285 288 290 290 290 283 279 280 281 279 279 282 282 278 276
237 243 242 234 232 227 225 231 236 235 233 236 230 202 173 193 204 197 212 240 257 261 261 266 275 283 282 283 284 285 286 287 284 275 277 276 276 276 279 282 285 282 276
228 208 213 233 233 228 227 230 240 244 238 237 232 173 201 229 230 231 233 240 254 264 269 274 275 273 271 274 280 285 286 287 289 288 282 277 274 272 273 274 274 277 283
240 218 205 218 226 225 229 233 242 245 236 237 232 171 182 234 244 248 250 249 249 259 268 273 276 280 287 284 285 282 284 289 294 294 289 282 273 269 271 272 274 279 279
235 221 213 210 217 207 225 239 246 248 241 239 235 223 203 228 246 252 257 256 261 266 266 267 274 280 282 282 283 284 288 292 294 296 290 284 281 278 276 277 277 277 279
232 228 223 224 227 225 230 239 248 252 246 243 242 235 234 234 249 259 265 262 255 254 255 260 269 284 293 288 277 272 295 312 300 286 285 282 279 280 275 268 272 282 283
242 244 243 240 241 241 245 254 261 256 245 241 244 246 250 253 254 256 257 256 253 254 260 265 270 274 283 291 295 317 26 351 306 297 275 269 275 277 277 276 274 272 278
248 245 241 239 237 246 245 242 248 254 250 241 239 246 256 260 262 262 257 258 260 256 258 257 267 277 281 276 302 359 20 301 287 286 280 265 263 271 275 271 271 269 270